Flag for Israel Weather past 2 weeks in Tel Aviv, Israel

Now
84 °F

Scattered clouds.


Feels Like: 87 °F
Forecast: 77 / 85 °F
Wind: 10 mph from Northwest

Location: Ben Gurion International Airport

Current Time: Sep 19, 2014 at 11:35:17 AM

Latest Report: Sep 19, 2014 at 11:20 AM


Visibility: N/A

Pressure: 29.98 "Hg

Humidity: 55%

Dew point: 66 °F

Location of Tel AvivLocation

Historic Weather in Tel Aviv — Graph

°F

Tel Aviv temperature yesterday

Maximum temperature yesterday: 86 °F (at 12:20 PM)
Minimum temperature yesterday: 77 °F (at 4:50 AM)
Average temperature yesterday: 81 °F

Past Weeks' High & Low Weather Summary

 TemperatureHumidityPressure
High100 °F (Sep 17, 1:20 PM)83% (Sep 5, 3:20 AM)29.98 "Hg (Sep 5, 3:20 AM)
Low70 °F (Sep 17, 6:20 AM)20% (Sep 17, 10:50 AM)29.68 "Hg (Sep 17, 3:50 PM)
Average81 °F63%29.86 "Hg
* Reported Sep 4 10:20 AM — Sep 19 10:20 AM, Tel Aviv, Weather by CustomWeather, © 2014

Note: Actual official high and low records may vary slightly from our data, if they occured in-between our weather recording intervals... More about our weather records

Advertising

Tel Aviv weather history for previous 24 hours

 ConditionsComfort  
Time TempWeatherWind HumidityBarometerVisibility
10:20 AM
Sep 19
84 °FScattered clouds.3 mph51%29.98 "HgN/A
9:50 AM82 °FScattered clouds.6 mph55%29.98 "HgN/A
9:20 AM82 °FScattered clouds.2 mph58%29.98 "HgN/A
8:50 AM81 °FScattered clouds.3 mph62%29.98 "HgN/A
8:20 AM79 °FPassing clouds.2 mph65%29.98 "HgN/A
7:50 AM75 °FPassing clouds.3 mph69%29.95 "HgN/A
7:20 AM73 °FPassing clouds.3 mph74%29.95 "HgN/A
6:50 AM72 °FPassing clouds.2 mph78%29.95 "HgN/A
6:20 AM72 °FPassing clouds.3 mph78%29.95 "HgN/A
5:50 AM72 °FPassing clouds.1 mph73%29.95 "HgN/A
5:20 AM72 °FPassing clouds.3 mph78%29.95 "HgN/A
4:50 AM73 °FPassing clouds.5 mph74%29.95 "HgN/A
4:20 AM73 °FPassing clouds.3 mph74%29.95 "HgN/A
3:50 AM73 °FPassing clouds.3 mph69%29.95 "HgN/A
3:20 AM73 °FPassing clouds.6 mph74%29.95 "HgN/A
2:50 AM73 °FPassing clouds.2 mph69%29.95 "HgN/A
2:20 AM73 °FPassing clouds.No wind69%29.95 "HgN/A
1:50 AM75 °FPassing clouds.3 mph65%29.95 "HgN/A
1:20 AM75 °FPassing clouds.3 mph69%29.95 "HgN/A
12:50 AM75 °FPassing clouds.No wind69%29.95 "HgN/A
12:20 AM77 °FPassing clouds.2 mph65%29.98 "HgN/A
11:50 PM
Sep 18
77 °FPassing clouds.2 mph65%29.98 "HgN/A
11:20 PM77 °FPassing clouds.2 mph65%29.98 "HgN/A
10:50 PM79 °FPassing clouds.3 mph61%29.98 "HgN/A
10:20 PM79 °FPassing clouds.5 mph61%29.98 "HgN/A
9:50 PM79 °FClear.6 mph61%29.98 "Hg10 mi
9:20 PM79 °FPassing clouds.6 mph65%29.98 "HgN/A
8:50 PM79 °FPassing clouds.5 mph65%29.95 "HgN/A
8:20 PM81 °FPassing clouds.8 mph62%29.95 "HgN/A
7:50 PM81 °FPassing clouds.9 mph62%29.95 "HgN/A
7:20 PM81 °FPassing clouds.9 mph62%29.92 "HgN/A
6:50 PM81 °FPassing clouds.9 mph62%29.92 "HgN/A
6:20 PM82 °FPassing clouds.10 mph58%29.92 "HgN/A
5:50 PM82 °FPassing clouds.14 mph58%29.92 "HgN/A
5:20 PM84 °FPassing clouds.14 mph55%29.92 "HgN/A
4:50 PM84 °FPassing clouds.14 mph55%29.89 "HgN/A
4:20 PM84 °FPassing clouds.15 mph55%29.89 "HgN/A
3:50 PM84 °FPassing clouds.16 mph55%29.89 "HgN/A
3:20 PM86 °FPassing clouds.17 mph52%29.89 "HgN/A
2:50 PM86 °FPassing clouds.15 mph49%29.89 "HgN/A
2:20 PM86 °FPassing clouds.15 mph49%29.89 "HgN/A
1:50 PM86 °FPassing clouds.14 mph49%29.89 "HgN/A
1:20 PM86 °FPassing clouds.13 mph52%29.89 "HgN/A
12:50 PM86 °FScattered clouds.10 mph52%29.92 "HgN/A
12:20 PM86 °FScattered clouds.14 mph55%29.92 "HgN/A
11:50 AM84 °FScattered clouds.8 mph58%29.92 "HgN/A
11:20 AM84 °FScattered clouds.12 mph58%29.92 "HgN/A
Weather by CustomWeather, © 2014

See weather overviewHow to use our weather pages